User: anonymous   Login
Location: Unspecified
(0.0000°N, 0.0000°E)
Time: 18:48:53
(UTC+00:00)
Language:

PACE - Orbit

View from above orbital plane
View from above orbital plane
View from above satellite
View from above satellite

Ground track
Ground track

The orbit data is extracted from the following two-line orbital elements,

1 40022U 14033N   17145.70244075 +.00000308 +00000-0 +39488-4 0  9993
2 40022 097.9157 056.8515 0014237 026.8696 333.3255 14.88186479159131
Epoch (UTC): 25 May 2017 16:51:30
Eccentricity: 0.0014237
inclination: 97.9157°
perigee height: 593 km
apogee height: 613 km
right ascension of ascending node: 56.8515°
argument of perigee: 26.8696°
revolutions per day: 14.88186479
mean anomaly at epoch: 333.3255°
orbit number at epoch: 15913

The dashed part of the orbit path shows where the satellite is in the earth's shadow,  

DLR